Tianqi Xingzuo 1-02

operational
NORAD ID: 44311 Int'l Des: NNA 2019-032 Owner: TZJ/GUOG Country: CN Constellation: tianqi
LEOCIRCULAR

Tianqi Xingzuo 1-02について

説明を読み込み中...

リアルタイム位置

3D地球を読み込み中...

次回通過

高度履歴

Altitude vs Time

uPlot chart will show altitude changes over time

軌道要素

1 44311U 19032B 26073.28387670 .00014430 00000-0 56073-3 0 9993
2 44311 44.9696 167.7794 0024418 150.0753 210.1531 15.25751133373249
Epoch: Mar 14, 2026 • Age: 7 hours

現在のステータス

高度 511.0 km
速度 7.60 km/s
衛星直下点 -45.12°S, 51.03°E
打ち上げ日 Jun 5, 2019
運用期間 6.7 years
タイプ other

技術仕様

分類 Payload
質量 8.00 kg
乾燥質量 8.00 kg
総質量 8.00 kg
長さ 0.30 m
直径 0.20 m
スパン 0.30 m
形状 Box
製造者 GUOG
バスタイプ Cubesat 6U
フェーズステータス In Orbit
所有者/国 TZJ/GUOG/CN

大規模コンステレーション

Loading constellations...